sat.trackr.live / text

‹ back to catalog

STARLINK-34430

NORAD 64456 · 2025-130U

PAYLOAD ACTIVE UNKNOWN

§ Identity

Operator
Country
US
Launch date
2025-06-18
Launch site
AFETR
Launch vehicle
Mass (kg)
RCS (m²)

Purposes: comms

External: N2YO · Heavens-Above · Gunter

§ Orbital elements

Epoch: 2026-05-25T03:39:55.308672Z

Period
94.11 min
Inclination
53.1566°
Eccentricity
0.0001209
Mean motion
15.30204320 rev/d
Perigee alt
474.4 km
Apogee alt
476.0 km
Semi-major
6,853.3 km
B*
3.2768e-4
RAAN
93.1012°
Arg perigee
77.6877°
Mean anomaly
282.4259°
Rev number
5,241

§ Raw data

STARLINK-344301 64456U 25130U   26145.15272348  .00009359  00000+0  32768-3 0  99902 64456  53.1566  93.1012 0001209  77.6877 282.4259 15.30204320 52417

JSON: /api/v1/satellites/64456 · /tle

For live sub-satellite position, see the globe view (requires WebGL).

§ Visibility from observer

Set your observer location to see the next 7 days of passes ≥ 10°. The values pass through the URL so the page stays shareable.

No JS? Fill the form by hand. The geolocation button needs JavaScript.